Search for airport 
image banner adimage banner adimage banner ad
image banner ad

KINS - Creech Afb

Located in Indian Springs, United States

ICAO - INS, IATA - INS

Data provided by Airmate  

General information

Coordinates: N36°35'11" W115°40'39"
Elevation is 3134 feet MSL.
Magnetic variation is 15° East
View others Airports in Nevada

Operational data

Special qualification required
Current time UTC:
Current local time:
Weather
METAR: KINS 130158Z AUTO 13013KT 10SM CLR 36/M16 A2983 RMK AO2 SLP052 T03571161 $
TAF: TAF KINS 1214/1320 VRB06KT 9999 SKC QNH2991INS BECMG 1218/1219 09009KT 9999 SKC QNH2987INS BECMG 1220/1221 12010G15KT 9999 SKC QNH2981INS BECMG 1300/1301 22012G20KT 9999 SKC QNH2983INS WND 120V220 BECMG 1304/1305 22009KT 9999 SKC QNH2987INS BECMG 1306/1307 VRB06KT 9999 SKC QNH2989INS BECMG 1319/1320 24010G20KT 9999 SKC QNH2988INS TX37/1223Z TN18/1312Z
View NOTAMs / SUP AIP / TFR affecting this airport [VIEW]
Communications frequencies: [VIEW]

Runways:

RWY identifierQFULength (ft)Width (ft)SurfaceLDA (ft)
0893°9002150ASPH
26273°9002150ASPH
135476100ASPH
315476100ASPH

Airport contact information

Address: Indian Springs United States

Satellite view of KINS